| time (UTC) | temp C | wind direction | speed KPH | gust KPH | rain 1hr cm | rain 24hr cm | rain mn cm | humidity % | barometer mb |
| 20260507192914 | 33 | 226 | 4.8 | 8.0 | 0.00 | 0.00 | 0.00 | 14 | 1060.6 |
| 20260507192410 | 34 | 297 | 3.2 | 4.8 | 0.00 | 0.00 | 0.00 | 14 | 1060.6 |
| 20260507191907 | 34 | 235 | 8.0 | 8.0 | 0.00 | 0.00 | 0.00 | 13 | 1060.7 |
| 20260507191403 | 33 | 261 | 3.2 | 8.0 | 0.00 | 0.00 | 0.00 | 14 | 1061.0 |
| 20260507190859 | 32 | 305 | 8.0 | 9.7 | 0.00 | 0.00 | 0.00 | 15 | 1061.0 |
| 20260507190358 | 32 | 327 | 3.2 | 6.4 | 0.00 | 0.00 | 0.00 | 16 | 1061.0 |
| 20260507185857 | 32 | 256 | 1.6 | 3.2 | 0.00 | 0.00 | 0.00 | 16 | 1061.1 |
| 20260507185353 | 32 | 93 | 3.2 | 3.2 | 0.00 | 0.00 | 0.00 | 16 | 1061.2 |
| 20260507184850 | 32 | 93 | 3.2 | 3.2 | 0.00 | 0.00 | 0.00 | 16 | 1061.3 |
| 20260507184348 | -17 | 0.0 | 0.0 | 0.00 | 0.00 | 0.00 | 1061.2 | ||
| 20260507183844 | -17 | 0.0 | 0.0 | 0.00 | 0.00 | 0.00 | 1061.3 | ||
| 20260507183342 | -17 | 0.0 | 0.0 | 0.00 | 0.00 | 0.00 | 1061.4 | ||
| 20260507182839 | -17 | 0.0 | 0.0 | 0.00 | 0.00 | 0.00 | 1061.4 | ||
| 20260507182335 | -17 | 0.0 | 0.0 | 0.00 | 0.00 | 0.00 | 1061.4 | ||
| 20260507181831 | 30 | 298 | 1.6 | 3.2 | 0.00 | 0.00 | 0.00 | 20 | 1061.6 |
| 20260507181327 | 30 | 298 | 1.6 | 3.2 | 0.00 | 0.00 | 0.00 | 20 | 1061.6 |
| 20260507180825 | 30 | 298 | 1.6 | 3.2 | 0.00 | 0.00 | 0.00 | 20 | 1061.6 |
| 20260507180321 | 30 | 298 | 1.6 | 3.2 | 0.00 | 0.00 | 0.00 | 20 | 1061.8 |
| 20260507175817 | 30 | 298 | 1.6 | 3.2 | 0.00 | 0.00 | 0.00 | 20 | 1061.7 |
| 20260507175314 | 30 | 298 | 1.6 | 3.2 | 0.00 | 0.00 | 0.00 | 20 | 1061.8 |
| 20260507174811 | 30 | 298 | 1.6 | 3.2 | 0.00 | 0.00 | 0.00 | 20 | 1061.8 |
| 20260507174309 | 30 | 298 | 1.6 | 3.2 | 0.00 | 0.00 | 0.00 | 20 | 1061.8 |
| 20260507173806 | 30 | 298 | 1.6 | 3.2 | 0.00 | 0.00 | 0.00 | 20 | 1061.8 |
| 20260507173303 | 30 | 298 | 1.6 | 3.2 | 0.00 | 0.00 | 0.00 | 20 | 1062.1 |
| 20260507172800 | 30 | 298 | 1.6 | 3.2 | 0.00 | 0.00 | 0.00 | 20 | 1062.2 |
| 20260507172256 | 30 | 298 | 1.6 | 3.2 | 0.00 | 0.00 | 0.00 | 20 | 1062.0 |
| 20260507171752 | 30 | 290 | 0.0 | 3.2 | 0.00 | 0.00 | 0.00 | 21 | 1062.0 |
| 20260507171249 | 30 | 290 | 0.0 | 3.2 | 0.00 | 0.00 | 0.00 | 21 | 1062.3 |
| 20260507170746 | 30 | 238 | 3.2 | 3.2 | 0.00 | 0.00 | 0.00 | 22 | 1062.1 |
| 20260507170243 | 30 | 238 | 3.2 | 3.2 | 0.00 | 0.00 | 0.00 | 22 | 1062.2 |
| 20260507165738 | 30 | 238 | 3.2 | 3.2 | 0.00 | 0.00 | 0.00 | 22 | 1062.2 |
| 20260507165235 | 30 | 238 | 3.2 | 3.2 | 0.00 | 0.00 | 0.00 | 22 | 1062.4 |
| 20260507164731 | 30 | 238 | 3.2 | 3.2 | 0.00 | 0.00 | 0.00 | 22 | 1062.4 |
| 20260507164228 | 28 | 316 | 1.6 | 3.2 | 0.00 | 0.00 | 0.00 | 25 | 1062.3 |
| 20260507163725 | 28 | 316 | 1.6 | 3.2 | 0.00 | 0.00 | 0.00 | 25 | 1062.4 |
| 20260507163223 | 28 | 316 | 1.6 | 3.2 | 0.00 | 0.00 | 0.00 | 25 | 1062.3 |
| 20260507162719 | 28 | 316 | 1.6 | 3.2 | 0.00 | 0.00 | 0.00 | 25 | 1062.3 |
| 20260507162215 | 28 | 276 | 3.2 | 3.2 | 0.00 | 0.00 | 0.00 | 25 | 1062.4 |
| 20260507161712 | 28 | 276 | 3.2 | 3.2 | 0.00 | 0.00 | 0.00 | 25 | 1062.4 |
| 20260507161208 | 28 | 297 | 3.2 | 4.8 | 0.00 | 0.00 | 0.00 | 25 | 1062.4 |
| 20260507160704 | 28 | 274 | 0.0 | 6.4 | 0.00 | 0.00 | 0.00 | 25 | 1062.6 |
| 20260507160201 | 27 | 265 | 3.2 | 6.4 | 0.00 | 0.00 | 0.00 | 26 | 1062.5 |
| 20260507155656 | 26 | 298 | 3.2 | 4.8 | 0.00 | 0.00 | 0.00 | 28 | 1062.6 |
| 20260507155153 | 27 | 317 | 3.2 | 4.8 | 0.00 | 0.00 | 0.00 | 28 | 1062.5 |
| 20260507154650 | 26 | 278 | 0.0 | 4.8 | 0.00 | 0.00 | 0.00 | 28 | 1062.6 |
| 20260507154148 | 27 | 42 | 3.2 | 4.8 | 0.00 | 0.00 | 0.00 | 28 | 1062.8 |
| 20260507153644 | 27 | 34 | 1.6 | 3.2 | 0.00 | 0.00 | 0.00 | 28 | 1062.6 |
| 20260507153140 | 26 | 15 | 0.0 | 3.2 | 0.00 | 0.00 | 0.00 | 29 | 1062.4 |
| 20260507152637 | 26 | 315 | 0.0 | 3.2 | 0.00 | 0.00 | 0.00 | 29 | 1062.6 |
| 20260507152132 | 26 | 320 | 3.2 | 4.8 | 0.00 | 0.00 | 0.00 | 29 | 1062.6 |
| 20260507151629 | 25 | 299 | 1.6 | 4.8 | 0.00 | 0.00 | 0.00 | 29 | 1062.7 |
| 20260507151126 | 25 | 357 | 1.6 | 3.2 | 0.00 | 0.00 | 0.00 | 29 | 1062.6 |
| 20260507150623 | 23 | 234 | 3.2 | 3.2 | 0.00 | 0.00 | 0.00 | 32 | 1062.8 |
| 20260507150120 | 23 | 315 | 4.8 | 6.4 | 0.00 | 0.00 | 0.00 | 33 | 1062.8 |
| 20260507145615 | 23 | 303 | 3.2 | 3.2 | 0.00 | 0.00 | 0.00 | 32 | 1062.6 |
| 20260507145113 | 22 | 184 | 0.0 | 4.8 | 0.00 | 0.00 | 0.00 | 34 | 1062.7 |
| 20260507144613 | 22 | 163 | 1.6 | 3.2 | 0.00 | 0.00 | 0.00 | 35 | 1062.8 |
| 20260507144112 | 22 | 229 | 0.0 | 3.2 | 0.00 | 0.00 | 0.00 | 35 | 1062.7 |
| 20260507143608 | 22 | 7 | 1.6 | 3.2 | 0.00 | 0.00 | 0.00 | 38 | 1062.8 |
| 20260507143106 | 21 | 238 | 0.0 | 4.8 | 0.00 | 0.00 | 0.00 | 39 | 1062.6 |
| 20260507142601 | 20 | 214 | 1.6 | 4.8 | 0.00 | 0.00 | 0.00 | 38 | 1062.7 |
| 20260507142058 | 20 | 198 | 1.6 | 6.4 | 0.00 | 0.00 | 0.00 | 38 | 1062.7 |
| 20260507141554 | 20 | 149 | 0.0 | 3.2 | 0.00 | 0.00 | 0.00 | 39 | 1062.7 |
| 20260507141051 | 19 | 350 | 0.0 | 3.2 | 0.00 | 0.00 | 0.00 | 40 | 1062.7 |
| 20260507140547 | 18 | 317 | 3.2 | 3.2 | 0.00 | 0.00 | 0.00 | 41 | 1062.8 |
| 20260507140045 | 17 | 15 | 0.0 | 3.2 | 0.00 | 0.00 | 0.00 | 43 | 1062.7 |
| 20260507135542 | 17 | 233 | 0.0 | 1.6 | 0.00 | 0.00 | 0.00 | 43 | 1062.4 |
| 20260507135039 | 17 | 311 | 0.0 | 0.0 | 0.00 | 0.00 | 0.00 | 44 | 1062.5 |
| 20260507134536 | 17 | 228 | 0.0 | 1.6 | 0.00 | 0.00 | 0.00 | 43 | 1062.5 |
| 20260507134031 | 17 | 184 | 0.0 | 4.8 | 0.00 | 0.00 | 0.00 | 45 | 1062.4 |
| 20260507133528 | 16 | 214 | 0.0 | 3.2 | 0.00 | 0.00 | 0.00 | 47 | 1062.2 |
| 20260507133026 | 15 | 22 | 0.0 | 3.2 | 0.00 | 0.00 | 0.00 | 49 | 1062.3 |
| 20260507132522 | 15 | 304 | 0.0 | 3.2 | 0.00 | 0.00 | 0.00 | 57 | 1062.1 |
| 20260507132018 | 14 | 326 | 0.0 | 1.6 | 0.00 | 0.00 | 0.00 | 57 | 1062.0 |
| 20260507131516 | 14 | 37 | 0.0 | 1.6 | 0.00 | 0.00 | 0.00 | 57 | 1062.1 |
| 20260507131013 | 14 | 315 | 0.0 | 1.6 | 0.00 | 0.00 | 0.00 | 58 | 1062.1 |
| 20260507130510 | 14 | 302 | 0.0 | 1.6 | 0.00 | 0.00 | 0.00 | 57 | 1062.0 |
| 20260507130008 | 14 | 297 | 0.0 | 1.6 | 0.00 | 0.00 | 0.00 | 55 | 1061.8 |
| 20260507125506 | 15 | 315 | 0.0 | 1.6 | 0.00 | 0.00 | 0.00 | 55 | 1062.0 |
| 20260507125003 | 15 | 315 | 0.0 | 1.6 | 0.00 | 0.00 | 0.00 | 55 | 1062.1 |
| 20260507124459 | 15 | 228 | 0.0 | 3.2 | 0.00 | 0.00 | 0.00 | 53 | 1062.1 |
| 20260507123957 | 15 | 230 | 0.0 | 1.6 | 0.00 | 0.00 | 0.00 | 53 | 1062.0 |
| 20260507123455 | 15 | 294 | 0.0 | 1.6 | 0.00 | 0.00 | 0.00 | 52 | 1062.0 |
| 20260507122951 | 15 | 119 | 0.0 | 3.2 | 0.00 | 0.00 | 0.00 | 54 | 1061.9 |
| 20260507122446 | 14 | 238 | 0.0 | 3.2 | 0.00 | 0.00 | 0.00 | 56 | 1061.8 |
| 20260507121943 | 14 | 211 | 3.2 | 3.2 | 0.00 | 0.00 | 0.00 | 57 | 1061.8 |
| 20260507121438 | 14 | 285 | 3.2 | 3.2 | 0.00 | 0.00 | 0.00 | 58 | 1061.8 |
| 20260507120935 | 15 | 296 | 0.0 | 3.2 | 0.00 | 0.00 | 0.00 | 57 | 1061.8 |
| 20260507120431 | 14 | 215 | 1.6 | 3.2 | 0.00 | 0.00 | 0.00 | 57 | 1061.6 |
| 20260507115928 | 14 | 269 | 0.0 | 3.2 | 0.00 | 0.00 | 0.00 | 58 | 1061.7 |
| 20260507115424 | 14 | 315 | 1.6 | 3.2 | 0.00 | 0.00 | 0.00 | 59 | 1061.8 |
| 20260507114920 | 15 | 10 | 1.6 | 1.6 | 0.00 | 0.00 | 0.00 | 60 | 1061.9 |
| 20260507114417 | 15 | 317 | 0.0 | 1.6 | 0.00 | 0.00 | 0.00 | 58 | 1061.8 |
| 20260507113914 | 15 | 221 | 1.6 | 3.2 | 0.00 | 0.00 | 0.00 | 58 | 1062.0 |
| 20260507113411 | 15 | 243 | 0.0 | 1.6 | 0.00 | 0.00 | 0.00 | 57 | 1061.8 |
| 20260507112908 | 15 | 172 | 0.0 | 3.2 | 0.00 | 0.00 | 0.00 | 58 | 1061.9 |
| 20260507112406 | 15 | 203 | 1.6 | 4.8 | 0.00 | 0.00 | 0.00 | 59 | 1062.0 |
| 20260507111904 | 14 | 145 | 1.6 | 3.2 | 0.00 | 0.00 | 0.00 | 61 | 1061.9 |
| 20260507111400 | 14 | 322 | 0.0 | 1.6 | 0.00 | 0.00 | 0.00 | 62 | 1061.9 |
| 20260507110856 | 14 | 166 | 0.0 | 3.2 | 0.00 | 0.00 | 0.00 | 62 | 1061.9 |
| 20260507110352 | 15 | 258 | 1.6 | 1.6 | 0.00 | 0.00 | 0.00 | 61 | 1062.0 |
| 20260507105849 | 15 | 161 | 0.0 | 3.2 | 0.00 | 0.00 | 0.00 | 59 | 1062.0 |
| 20260507105346 | 15 | 358 | 0.0 | 3.2 | 0.00 | 0.00 | 0.00 | 60 | 1061.9 |
| 20260507104842 | 15 | 235 | 0.0 | 3.2 | 0.00 | 0.00 | 0.00 | 59 | 1061.8 |
| 20260507104339 | 15 | 326 | 0.0 | 0.0 | 0.00 | 0.00 | 0.00 | 58 | 1061.9 |
| 20260507103835 | 15 | 246 | 0.0 | 1.6 | 0.00 | 0.00 | 0.00 | 59 | 1061.9 |
| 20260507103332 | 14 | 353 | 0.0 | 3.2 | 0.00 | 0.00 | 0.00 | 60 | 1062.0 |
| 20260507102828 | 15 | 150 | 0.0 | 0.0 | 0.00 | 0.00 | 0.00 | 60 | 1062.0 |
| 20260507102325 | 15 | 347 | 0.0 | 1.6 | 0.00 | 0.00 | 0.00 | 59 | 1062.2 |
| 20260507101821 | 15 | 240 | 0.0 | 0.0 | 0.00 | 0.00 | 0.00 | 58 | 1062.2 |
| 20260507101316 | 15 | 230 | 0.0 | 0.0 | 0.00 | 0.00 | 0.00 | 58 | 1062.0 |
| 20260507100813 | 15 | 50 | 0.0 | 1.6 | 0.00 | 0.00 | 0.00 | 57 | 1062.2 |
| 20260507100311 | 15 | 315 | 0.0 | 0.0 | 0.00 | 0.00 | 0.00 | 58 | 1062.2 |
| 20260507095809 | 15 | 322 | 0.0 | 0.0 | 0.00 | 0.00 | 0.00 | 57 | 1062.3 |
| 20260507095306 | 15 | 322 | 0.0 | 1.6 | 0.00 | 0.00 | 0.00 | 56 | 1062.3 |
| 20260507094802 | 15 | 309 | 0.0 | 0.0 | 0.00 | 0.00 | 0.00 | 55 | 1062.2 |
| 20260507094259 | 15 | 339 | 0.0 | 0.0 | 0.00 | 0.00 | 0.00 | 54 | 1062.5 |
| 20260507093756 | 15 | 55 | 0.0 | 0.0 | 0.00 | 0.00 | 0.00 | 54 | 1062.4 |
| 20260507093255 | 15 | 296 | 0.0 | 1.6 | 0.00 | 0.00 | 0.00 | 54 | 1062.4 |
| 20260507092752 | 16 | 315 | 0.0 | 1.6 | 0.00 | 0.00 | 0.00 | 52 | 1062.6 |
| 20260507092248 | 16 | 208 | 0.0 | 3.2 | 0.00 | 0.00 | 0.00 | 52 | 1062.6 |
| 20260507091744 | 16 | 185 | 1.6 | 3.2 | 0.00 | 0.00 | 0.00 | 52 | 1062.5 |
| 20260507091241 | 16 | 304 | 0.0 | 1.6 | 0.00 | 0.00 | 0.00 | 52 | 1062.5 |
| 20260507090736 | 16 | 350 | 1.6 | 1.6 | 0.00 | 0.00 | 0.00 | 52 | 1062.6 |
| 20260507090233 | 16 | 322 | 0.0 | 1.6 | 0.00 | 0.00 | 0.00 | 52 | 1062.5 |
| 20260507085730 | 16 | 341 | 0.0 | 3.2 | 0.00 | 0.00 | 0.00 | 52 | 1062.8 |
| 20260507085227 | 16 | 322 | 0.0 | 0.0 | 0.00 | 0.00 | 0.00 | 52 | 1062.6 |
| 20260507084724 | 16 | 22 | 0.0 | 0.0 | 0.00 | 0.00 | 0.00 | 51 | 1062.8 |
| 20260507084221 | 16 | 296 | 0.0 | 1.6 | 0.00 | 0.00 | 0.00 | 50 | 1062.8 |
| 20260507083718 | 16 | 5 | 0.0 | 1.6 | 0.00 | 0.00 | 0.00 | 51 | 1062.6 |
| 20260507083215 | 16 | 45 | 1.6 | 1.6 | 0.00 | 0.00 | 0.00 | 52 | 1062.8 |
| 20260507082711 | 16 | 0 | 0.0 | 0.0 | 0.00 | 0.00 | 0.00 | 51 | 1062.7 |
| 20260507082207 | 16 | 217 | 0.0 | 1.6 | 0.00 | 0.00 | 0.00 | 50 | 1062.7 |
| 20260507081704 | 16 | 196 | 0.0 | 1.6 | 0.00 | 0.00 | 0.00 | 50 | 1062.8 |
| 20260507081159 | 16 | 230 | 0.0 | 1.6 | 0.00 | 0.00 | 0.00 | 51 | 1062.8 |
| 20260507080656 | 16 | 315 | 0.0 | 1.6 | 0.00 | 0.00 | 0.00 | 51 | 1062.8 |
| 20260507080153 | 16 | 306 | 0.0 | 1.6 | 0.00 | 0.00 | 0.00 | 51 | 1062.9 |
| 20260507075648 | 16 | 336 | 0.0 | 1.6 | 0.00 | 0.00 | 0.00 | 52 | 1062.8 |
| 20260507075144 | 16 | 50 | 0.0 | 0.0 | 0.00 | 0.00 | 0.00 | 51 | 1062.8 |
| 20260507074641 | 16 | 224 | 0.0 | 1.6 | 0.00 | 0.00 | 0.00 | 52 | 1063.0 |
| 20260507074139 | 16 | 230 | 0.0 | 0.0 | 0.00 | 0.00 | 0.00 | 52 | 1062.9 |
| 20260507073635 | 16 | 296 | 1.6 | 3.2 | 0.00 | 0.00 | 0.00 | 53 | 1063.0 |
| 20260507073132 | 16 | 293 | 0.0 | 1.6 | 0.00 | 0.00 | 0.00 | 53 | 1062.7 |
| 20260507072630 | 16 | 313 | 0.0 | 1.6 | 0.00 | 0.00 | 0.00 | 53 | 1062.8 |
| 20260507072127 | 17 | 308 | 0.0 | 1.6 | 0.00 | 0.00 | 0.00 | 52 | 1062.9 |
| 20260507071624 | 17 | 358 | 0.0 | 3.2 | 0.00 | 0.00 | 0.00 | 51 | 1062.9 |
| 20260507071120 | 17 | 335 | 0.0 | 3.2 | 0.00 | 0.00 | 0.00 | 51 | 1062.9 |
| 20260507070618 | 17 | 337 | 1.6 | 1.6 | 0.00 | 0.00 | 0.00 | 51 | 1063.0 |
| 20260507070115 | 17 | 309 | 0.0 | 1.6 | 0.00 | 0.00 | 0.00 | 50 | 1063.0 |
| 20260507065611 | 17 | 315 | 0.0 | 0.0 | 0.00 | 0.00 | 0.00 | 50 | 1062.8 |
| 20260507065108 | 17 | 322 | 0.0 | 0.0 | 0.00 | 0.00 | 0.00 | 50 | 1063.0 |
| 20260507064606 | 17 | 315 | 0.0 | 0.0 | 0.00 | 0.00 | 0.00 | 49 | 1063.2 |
| 20260507064104 | 17 | 299 | 0.0 | 1.6 | 0.00 | 0.00 | 0.00 | 49 | 1063.0 |
| 20260507063601 | 18 | 339 | 0.0 | 1.6 | 0.00 | 0.00 | 0.00 | 48 | 1062.9 |
| 20260507063058 | 18 | 269 | 0.0 | 1.6 | 0.00 | 0.00 | 0.00 | 49 | 1062.9 |
| 20260507062555 | 18 | 269 | 0.0 | 1.6 | 0.00 | 0.00 | 0.00 | 48 | 1063.0 |
| 20260507062052 | 17 | 269 | 0.0 | 1.6 | 0.00 | 0.00 | 0.00 | 47 | 1062.8 |
| 20260507061550 | 17 | 274 | 0.0 | 1.6 | 0.00 | 0.00 | 0.00 | 47 | 1062.9 |
| 20260507061048 | 18 | 304 | 0.0 | 1.6 | 0.00 | 0.00 | 0.00 | 46 | 1062.7 |
| 20260507060546 | 18 | 293 | 0.0 | 1.6 | 0.00 | 0.00 | 0.00 | 46 | 1062.8 |
| 20260507060042 | 18 | 283 | 0.0 | 1.6 | 0.00 | 0.00 | 0.00 | 45 | 1062.7 |
| 20260507055537 | 18 | 315 | 1.6 | 1.6 | 0.00 | 0.00 | 0.00 | 45 | 1062.9 |
| 20260507055033 | 18 | 309 | 0.0 | 1.6 | 0.00 | 0.00 | 0.00 | 45 | 1063.0 |
| 20260507054529 | 18 | 315 | 0.0 | 1.6 | 0.00 | 0.00 | 0.00 | 44 | 1062.7 |
| 20260507054026 | 18 | 315 | 0.0 | 1.6 | 0.00 | 0.00 | 0.00 | 43 | 1062.9 |
| 20260507053524 | 19 | 326 | 0.0 | 1.6 | 0.00 | 0.00 | 0.00 | 43 | 1062.6 |
| 20260507053023 | 19 | 308 | 0.0 | 3.2 | 0.00 | 0.00 | 0.00 | 42 | 1062.9 |
| 20260507052520 | 20 | 309 | 0.0 | 0.0 | 0.00 | 0.00 | 0.00 | 42 | 1062.7 |
| 20260507052017 | 20 | 317 | 0.0 | 0.0 | 0.00 | 0.00 | 0.00 | 42 | 1062.8 |
| 20260507051515 | 20 | 304 | 0.0 | 3.2 | 0.00 | 0.00 | 0.00 | 42 | 1062.8 |
| 20260507051011 | 19 | 306 | 0.0 | 0.0 | 0.00 | 0.00 | 0.00 | 41 | 1062.7 |
| 20260507050508 | 19 | 285 | 0.0 | 1.6 | 0.00 | 0.00 | 0.00 | 42 | 1062.8 |
| 20260507050005 | 20 | 314 | 0.0 | 1.6 | 0.00 | 0.00 | 0.00 | 41 | 1062.7 |
| 20260507045501 | 20 | 310 | 0.0 | 1.6 | 0.00 | 0.00 | 0.00 | 41 | 1062.5 |
| 20260507044958 | 20 | 217 | 0.0 | 0.0 | 0.00 | 0.00 | 0.00 | 39 | 1062.7 |
| 20260507044455 | 20 | 326 | 0.0 | 1.6 | 0.00 | 0.00 | 0.00 | 39 | 1062.6 |
| 20260507043951 | 20 | 309 | 0.0 | 0.0 | 0.00 | 0.00 | 0.00 | 38 | 1062.6 |
| 20260507043447 | 20 | 311 | 0.0 | 3.2 | 0.00 | 0.00 | 0.00 | 37 | 1062.6 |
| 20260507042944 | 21 | 309 | 0.0 | 1.6 | 0.00 | 0.00 | 0.00 | 36 | 1062.5 |
| 20260507042441 | 21 | 62 | 0.0 | 0.0 | 0.00 | 0.00 | 0.00 | 36 | 1062.5 |
| 20260507041936 | 21 | 269 | 0.0 | 0.0 | 0.00 | 0.00 | 0.00 | 36 | 1062.4 |
| 20260507041433 | 21 | 309 | 0.0 | 1.6 | 0.00 | 0.00 | 0.00 | 35 | 1062.3 |
| 20260507040931 | 21 | 315 | 0.0 | 1.6 | 0.00 | 0.00 | 0.00 | 34 | 1062.4 |
| 20260507040431 | 22 | 315 | 1.6 | 1.6 | 0.00 | 0.00 | 0.00 | 33 | 1062.4 |
| 20260507035927 | 22 | 309 | 0.0 | 1.6 | 0.00 | 0.00 | 0.00 | 32 | 1062.2 |
| 20260507035424 | 22 | 297 | 0.0 | 1.6 | 0.00 | 0.00 | 0.00 | 32 | 1062.2 |
| 20260507034921 | 22 | 299 | 0.0 | 3.2 | 0.00 | 0.00 | 0.00 | 32 | 1062.1 |
| 20260507034418 | 22 | 291 | 0.0 | 1.6 | 0.00 | 0.00 | 0.00 | 30 | 1062.1 |
| 20260507033916 | 22 | 269 | 0.0 | 1.6 | 0.00 | 0.00 | 0.00 | 30 | 1062.0 |
| 20260507033414 | 23 | 307 | 0.0 | 1.6 | 0.00 | 0.00 | 0.00 | 30 | 1062.0 |
| 20260507032911 | 23 | 235 | 0.0 | 1.6 | 0.00 | 0.00 | 0.00 | 28 | 1061.9 |
| 20260507032407 | 24 | 288 | 0.0 | 3.2 | 0.00 | 0.00 | 0.00 | 27 | 1061.9 |
| 20260507031903 | 24 | 264 | 3.2 | 3.2 | 0.00 | 0.00 | 0.00 | 26 | 1061.8 |
| 20260507031400 | 25 | 258 | 1.6 | 3.2 | 0.00 | 0.00 | 0.00 | 26 | 1061.6 |
| 20260507030857 | 25 | 263 | 3.2 | 4.8 | 0.00 | 0.00 | 0.00 | 25 | 1061.7 |
| 20260507030354 | 25 | 273 | 1.6 | 3.2 | 0.00 | 0.00 | 0.00 | 25 | 1061.7 |
| 20260507025851 | 25 | 236 | 3.2 | 3.2 | 0.00 | 0.00 | 0.00 | 24 | 1061.6 |
| 20260507025349 | 25 | 243 | 3.2 | 3.2 | 0.00 | 0.00 | 0.00 | 24 | 1061.7 |
| 20260507024846 | 25 | 261 | 3.2 | 4.8 | 0.00 | 0.00 | 0.00 | 24 | 1061.6 |
| 20260507024343 | 25 | 276 | 1.6 | 4.8 | 0.00 | 0.00 | 0.00 | 24 | 1061.5 |
| 20260507023839 | 26 | 233 | 4.8 | 6.4 | 0.00 | 0.00 | 0.00 | 24 | 1061.2 |
| 20260507023336 | 26 | 267 | 1.6 | 6.4 | 0.00 | 0.00 | 0.00 | 23 | 1061.4 |
| 20260507022833 | 26 | 233 | 6.4 | 6.4 | 0.00 | 0.00 | 0.00 | 23 | 1061.3 |
| 20260507022330 | 26 | 220 | 6.4 | 8.0 | 0.00 | 0.00 | 0.00 | 23 | 1061.2 |
| 20260507021825 | 26 | 244 | 3.2 | 4.8 | 0.00 | 0.00 | 0.00 | 23 | 1061.2 |
| 20260507021321 | 26 | 252 | 3.2 | 4.8 | 0.00 | 0.00 | 0.00 | 23 | 1061.2 |
| 20260507020819 | 26 | 236 | 3.2 | 6.4 | 0.00 | 0.00 | 0.00 | 23 | 1061.2 |
| 20260507020315 | 26 | 255 | 3.2 | 6.4 | 0.00 | 0.00 | 0.00 | 22 | 1061.1 |
| 20260507015813 | 26 | 242 | 3.2 | 6.4 | 0.00 | 0.00 | 0.00 | 22 | 1061.1 |
| 20260507015310 | 27 | 278 | 3.2 | 8.0 | 0.00 | 0.00 | 0.00 | 22 | 1061.1 |
| 20260507014807 | 27 | 229 | 1.6 | 8.0 | 0.00 | 0.00 | 0.00 | 22 | 1061.1 |
| 20260507014304 | 27 | 267 | 1.6 | 3.2 | 0.00 | 0.00 | 0.00 | 21 | 1060.9 |
| 20260507013800 | 27 | 261 | 3.2 | 9.7 | 0.00 | 0.00 | 0.00 | 22 | 1061.0 |
| 20260507013258 | 27 | 276 | 4.8 | 8.0 | 0.00 | 0.00 | 0.00 | 22 | 1061.0 |
| 20260507012755 | 27 | 269 | 0.0 | 8.0 | 0.00 | 0.00 | 0.00 | 22 | 1061.1 |
| 20260507012250 | 27 | 222 | 4.8 | 9.7 | 0.00 | 0.00 | 0.00 | 21 | 1061.0 |
| 20260507011748 | 28 | 218 | 3.2 | 9.7 | 0.00 | 0.00 | 0.00 | 21 | 1061.2 |
| 20260507011244 | 30 | 226 | 3.2 | 4.8 | 0.00 | 0.00 | 0.00 | 19 | 1061.2 |
| 20260507010744 | 30 | 282 | 1.6 | 8.0 | 0.00 | 0.00 | 0.00 | 20 | 1061.2 |
| 20260507010240 | 29 | 269 | 0.0 | 4.8 | 0.00 | 0.00 | 0.00 | 21 | 1060.9 |
| 20260507005738 | 28 | 189 | 4.8 | 8.0 | 0.00 | 0.00 | 0.00 | 21 | 1061.0 |
| 20260507005234 | 29 | 231 | 1.6 | 8.0 | 0.00 | 0.00 | 0.00 | 21 | 1061.0 |
| 20260507004731 | 29 | 242 | 6.4 | 9.7 | 0.00 | 0.00 | 0.00 | 20 | 1061.1 |
| 20260507004229 | 30 | 209 | 11.3 | 11.3 | 0.00 | 0.00 | 0.00 | 20 | 1061.1 |
| 20260507003724 | 30 | 189 | 3.2 | 3.2 | 0.00 | 0.00 | 0.00 | 20 | 1060.9 |
| 20260507003220 | 30 | 263 | 4.8 | 9.7 | 0.00 | 0.00 | 0.00 | 19 | 1061.1 |
| 20260507002716 | 30 | 243 | 1.6 | 4.8 | 0.00 | 0.00 | 0.00 | 19 | 1061.0 |
| 20260507002212 | 30 | 268 | 1.6 | 6.4 | 0.00 | 0.00 | 0.00 | 19 | 1061.1 |
| 20260507001709 | 30 | 239 | 1.6 | 4.8 | 0.00 | 0.00 | 0.00 | 19 | 1060.9 |
| 20260507001207 | 30 | 290 | 0.0 | 3.2 | 0.00 | 0.00 | 0.00 | 20 | 1060.9 |
| 20260507000702 | 28 | 265 | 3.2 | 4.8 | 0.00 | 0.00 | 0.00 | 20 | 1061.0 |
| 20260507000158 | 29 | 345 | 3.2 | 4.8 | 0.00 | 0.00 | 0.00 | 20 | 1061.1 |
| 20260506235655 | 29 | 359 | 9.7 | 9.7 | 0.00 | 0.00 | 0.00 | 21 | 1061.0 |
| 20260506235151 | 29 | 277 | 1.6 | 6.4 | 0.00 | 0.00 | 0.00 | 20 | 1061.2 |
| 20260506234648 | 29 | 226 | 3.2 | 6.4 | 0.00 | 0.00 | 0.00 | 21 | 1061.2 |
| 20260506234145 | 30 | 283 | 4.8 | 9.7 | 0.00 | 0.00 | 0.00 | 20 | 1061.1 |
| 20260506233642 | 30 | 215 | 1.6 | 9.7 | 0.00 | 0.00 | 0.00 | 20 | 1061.1 |
| 20260506233139 | 30 | 257 | 0.0 | 3.2 | 0.00 | 0.00 | 0.00 | 20 | 1060.9 |
| 20260506232635 | 28 | 229 | 3.2 | 4.8 | 0.00 | 0.00 | 0.00 | 20 | 1061.2 |
| 20260506232131 | 29 | 332 | 4.8 | 6.4 | 0.00 | 0.00 | 0.00 | 20 | 1061.0 |
| 20260506231628 | 28 | 251 | 1.6 | 9.7 | 0.00 | 0.00 | 0.00 | 20 | 1061.3 |
| 20260506231127 | 28 | 303 | 4.8 | 9.7 | 0.00 | 0.00 | 0.00 | 20 | 1061.4 |
| 20260506230623 | 29 | 313 | 0.0 | 9.7 | 0.00 | 0.00 | 0.00 | 20 | 1061.4 |
| 20260506230120 | 30 | 245 | 3.2 | 6.4 | 0.00 | 0.00 | 0.00 | 19 | 1061.3 |
| 20260506225616 | 29 | 254 | 3.2 | 4.8 | 0.00 | 0.00 | 0.00 | 20 | 1061.4 |
| 20260506225113 | 28 | 18 | 1.6 | 6.4 | 0.00 | 0.00 | 0.00 | 21 | 1061.5 |
| 20260506224610 | 28 | 266 | 4.8 | 9.7 | 0.00 | 0.00 | 0.00 | 22 | 1061.7 |
| 20260506224106 | 29 | 318 | 6.4 | 11.3 | 0.00 | 0.00 | 0.00 | 20 | 1061.8 |
| 20260506223602 | 29 | 311 | 4.8 | 11.3 | 0.00 | 0.00 | 0.00 | 20 | 1061.7 |
| 20260506223059 | 28 | 347 | 4.8 | 9.7 | 0.00 | 0.00 | 0.00 | 21 | 1061.8 |
| 20260506222556 | 28 | 53 | 3.2 | 6.4 | 0.00 | 0.00 | 0.00 | 20 | 1061.9 |
| 20260506222052 | 28 | 195 | 3.2 | 9.7 | 0.00 | 0.00 | 0.00 | 20 | 1061.9 |
| 20260506221550 | 28 | 288 | 6.4 | 9.7 | 0.00 | 0.00 | 0.00 | 21 | 1061.9 |
| 20260506221048 | 29 | 284 | 3.2 | 4.8 | 0.00 | 0.00 | 0.00 | 21 | 1061.9 |
| 20260506220543 | 28 | 340 | 8.0 | 11.3 | 0.00 | 0.00 | 0.00 | 22 | 1062.1 |
| 20260506220039 | 27 | 312 | 4.8 | 6.4 | 0.00 | 0.00 | 0.00 | 23 | 1062.2 |
| 20260506215536 | 27 | 286 | 9.7 | 12.9 | 0.00 | 0.00 | 0.00 | 22 | 1062.2 |
| 20260506215032 | 28 | 303 | 6.4 | 9.7 | 0.00 | 0.00 | 0.00 | 21 | 1062.2 |
| 20260506214529 | 28 | 346 | 8.0 | 9.7 | 0.00 | 0.00 | 0.00 | 22 | 1062.3 |
| 20260506214026 | 27 | 265 | 4.8 | 9.7 | 0.00 | 0.00 | 0.00 | 22 | 1062.4 |
| 20260506213524 | 28 | 347 | 3.2 | 8.0 | 0.00 | 0.00 | 0.00 | 23 | 1062.7 |
| 20260506213021 | 30 | 220 | 6.4 | 9.7 | 0.00 | 0.00 | 0.00 | 22 | 1062.5 |
| 20260506212518 | 28 | 312 | 0.0 | 6.4 | 0.00 | 0.00 | 0.00 | 24 | 1062.8 |
| 20260506212013 | 28 | 6 | 3.2 | 6.4 | 0.00 | 0.00 | 0.00 | 22 | 1062.7 |
| 20260506211508 | 28 | 272 | 9.7 | 9.7 | 0.00 | 0.00 | 0.00 | 23 | 1062.6 |
| 20260506211006 | 28 | 249 | 0.0 | 8.0 | 0.00 | 0.00 | 0.00 | 22 | 1062.8 |
| 20260506210502 | 27 | 350 | 3.2 | 8.0 | 0.00 | 0.00 | 0.00 | 23 | 1062.9 |
| 20260506205959 | 28 | 203 | 3.2 | 6.4 | 0.00 | 0.00 | 0.00 | 22 | 1063.0 |
| 20260506205455 | 28 | 285 | 3.2 | 6.4 | 0.00 | 0.00 | 0.00 | 22 | 1063.0 |
| 20260506204951 | 27 | 326 | 3.2 | 8.0 | 0.00 | 0.00 | 0.00 | 24 | 1063.3 |
| 20260506204450 | 28 | 341 | 3.2 | 9.7 | 0.00 | 0.00 | 0.00 | 23 | 1063.4 |
| 20260506203947 | 27 | 324 | 4.8 | 11.3 | 0.00 | 0.00 | 0.00 | 22 | 1063.3 |
| 20260506203444 | 26 | 215 | 3.2 | 4.8 | 0.00 | 0.00 | 0.00 | 23 | 1063.4 |
| 20260506202941 | 27 | 306 | 11.3 | 14.5 | 0.00 | 0.00 | 0.00 | 24 | 1063.4 |
| 20260506202438 | 27 | 9 | 3.2 | 6.4 | 0.00 | 0.00 | 0.00 | 24 | 1063.3 |
| 20260506201934 | 27 | 275 | 4.8 | 6.4 | 0.00 | 0.00 | 0.00 | 25 | 1063.4 |
| 20260506201432 | 27 | 312 | 8.0 | 9.7 | 0.00 | 0.00 | 0.00 | 25 | 1063.5 |
| 20260506200928 | 27 | 309 | 3.2 | 9.7 | 0.00 | 0.00 | 0.00 | 25 | 1063.6 |
| 20260506200425 | 27 | 294 | 1.6 | 8.0 | 0.00 | 0.00 | 0.00 | 25 | 1063.4 |
| 20260506195921 | 27 | 277 | 3.2 | 4.8 | 0.00 | 0.00 | 0.00 | 24 | 1063.5 |
| 20260506195418 | 26 | 99 | 3.2 | 8.0 | 0.00 | 0.00 | 0.00 | 24 | 1063.7 |
| 20260506194915 | 27 | 317 | 1.6 | 6.4 | 0.00 | 0.00 | 0.00 | 24 | 1063.7 |
| 20260506194412 | 27 | 295 | 9.7 | 9.7 | 0.00 | 0.00 | 0.00 | 23 | 1063.9 |
| 20260506193909 | 26 | 349 | 6.4 | 9.7 | 0.00 | 0.00 | 0.00 | 24 | 1063.8 |
| 20260506193406 | 26 | 294 | 3.2 | 6.4 | 0.00 | 0.00 | 0.00 | 25 | 1064.0 |